[[{"header":{"parameterUnit":"m.s-1","parameterCategory":1,"la1":30.2991,"la2":30.254,"lo1":-89.0895,"lo2":-89.0444,"dy":0.0017,"dx":0.0017,"nx":28,"ny":28,"refTime":"2023-03-19T21:00:00:Z","depth":0,"parameterNumber":2,"parameterNumberName":"U-component_of_WINDS"},"data":[0,0,0,0,0,0,0,0,0,0,0,0,0,0,0,0,0,0,0,0,0,0,0,0,0,0,0,0,0,0,0,0,0,0,0,0,0,0,0,0,0,0,0,0,0,0,0,0,0,0,0,0,0,0,0,0,0,0,2.1243,2.1243,0,2.1231,2.1231,2.1231,2.1195,2.1194,2.1194,2.1193,2.118,2.118,2.118,0,0,0,0,0,0,0,0,0,0,0,0,0,2.1237,2.1237,2.1243,2.1243,2.1243,2.1231,2.1231,2.1231,2.1195,2.1194,2.1193,2.1192,2.1179,2.118,2.118,0,0,0,0,0,0,0,0,0,0,0,0,0,2.1234,2.1237,2.1243,2.1224,2.1222,2.1231,2.1231,2.1231,2.1195,2.1194,2.1193,2.1192,2.1179,2.118,2.118,2.1207,0,0,2.1182,2.1182,0,0,0,0,0,0,0,0,2.1234,2.1234,2.1227,2.1225,2.1223,2.1213,2.1224,2.1223,2.1196,2.1206,2.1193,2.1191,2.1192,2.1191,2.1191,2.1206,2.1206,2.1182,2.1182,2.1183,2.1183,0,0,0,0,0,0,0,2.1234,2.1234,2.1239,2.1227,2.1225,2.1216,2.1214,2.1223,2.1205,2.1205,2.1202,2.1201,2.119,2.1191,2.1191,2.1206,2.1182,2.1183,2.1183,2.1183,2.1243,2.1244,0,0,0,0,0,0,2.1237,2.1235,2.1239,2.1238,2.1226,2.1217,2.1215,2.1218,2.1205,2.1202,2.1202,2.1199,2.1191,2.119,2.119,2.1221,2.1183,2.1183,2.1183,2.1242,2.1243,2.1245,0,0,0,0,0,0,2.1237,2.1238,2.1239,2.1236,2.1235,2.1218,2.1222,2.1218,2.1219,2.1203,2.12,2.1206,2.119,2.1189,2.1203,2.122,2.1183,2.1184,2.124,2.1242,2.1244,2.1282,0,0,0,0,0,0,2.1237,2.1238,2.1248,2.1236,2.1236,2.1253,2.1223,2.1219,2.122,2.1216,2.1206,2.1203,2.1189,2.1203,2.1204,2.122,2.1184,2.1239,2.1241,2.1243,2.128,2.1285,2.129,0,0,0,0,0,2.1237,2.1259,2.1248,2.1249,2.1247,2.1254,2.1253,2.1237,2.1221,2.1231,2.1221,2.1203,2.1218,2.1204,2.1205,2.1222,2.1238,2.124,2.1243,2.1277,2.1284,2.129,0,0,0,0,0,0,2.1272,2.1257,2.1245,2.1264,2.1261,2.1248,2.1259,2.1245,2.1245,2.1242,2.1221,2.1219,2.1236,2.1231,2.1215,2.1248,2.1225,2.1228,2.1251,2.1257,2.1262,2.1263,2.1185,0,0,0,0,0,2.1282,2.1289,2.1275,2.1293,2.1292,2.1276,2.1278,2.1266,2.1261,2.126,2.1251,2.1247,2.1251,2.1254,2.1257,2.1279,2.1277,2.1291,2.1297,2.1301,2.1304,2.1316,2.1322,2.1254,2.1254,2.1254,0,0,2.1302,2.1295,2.13,2.13,2.1295,2.1303,2.1275,2.1284,2.1289,2.1261,2.1273,2.1267,2.1262,2.128,2.1288,2.1276,2.1322,2.1305,2.1308,2.1309,2.1319,2.1326,2.1332,2.1256,2.1256,2.1255,0,0,2.1343,2.1339,2.1353,2.135,2.1344,2.1334,2.1338,2.1328,2.1323,2.1335,2.1315,2.1321,2.1328,2.1325,2.1324,2.1367,2.135,2.1368,2.1396,2.1408,2.1413,2.1418,2.1433,2.1439,2.1371,2.1371,2.1371,0,2.1369,2.1379,2.1362,2.1373,2.1373,2.1349,2.1364,2.1362,2.1357,2.1358,2.1345,2.1355,2.1349,2.1367,2.1378,2.1378,2.1382,2.1369,2.1414,2.1419,2.1423,2.1437,2.1442,2.1373,2.1373,2.1373,2.1373,0,2.1412,2.1419,2.1432,2.1429,2.1431,2.1443,2.1429,2.1433,2.1421,2.1412,2.1426,2.1419,2.142,2.1424,2.1412,2.1441,2.1433,2.1418,2.1394,2.1432,2.1444,2.145,2.1377,2.1376,2.1375,2.1375,0,0,2.1472,2.1461,2.1466,2.1465,2.1458,2.1463,2.1475,2.1477,2.1481,2.148,2.1489,2.1497,2.1483,2.1482,2.147,2.1481,2.1515,2.1464,2.1463,2.1473,2.1546,2.1557,2.1564,2.1505,2.1505,2.1506,2.1546,0,2.1511,2.1531,2.1516,2.1538,2.1545,2.1524,2.1534,2.1531,2.1524,2.1529,2.1521,2.1527,2.1508,2.1507,2.1517,2.1509,2.1529,2.1506,2.1513,2.1513,2.1514,2.1571,2.1582,2.162,2.1551,2.1552,2.1553,0,2.1558,2.1559,2.1582,2.1575,2.1577,2.1587,2.1588,2.1593,2.159,2.1584,2.1584,2.157,2.1582,2.156,2.1575,2.156,2.1562,2.1559,2.156,2.1559,2.1535,2.1571,2.1632,2.1638,2.1561,2.156,2.1559,0,2.16,2.1607,2.1622,2.1622,2.1614,2.1621,2.1618,2.1614,2.1616,2.1617,2.1619,2.1621,2.1622,2.1625,2.1611,2.1597,2.1629,2.1606,2.1624,2.1625,2.1631,2.1631,2.1693,2.1634,2.1634,2.1634,2.1634,0,2.1644,2.1659,2.1641,2.165,2.1666,2.165,2.1667,2.1662,2.1659,2.1666,2.1648,2.1656,2.1638,2.1645,2.1634,2.1649,2.165,2.1646,2.1643,2.1647,2.1647,2.1647,2.1644,2.1636,2.1635,2.1635,2.1635,0,2.1693,2.1681,2.1696,2.1688,2.1686,2.1699,2.1691,2.17,2.1692,2.1702,2.1704,2.1692,2.1698,2.1686,2.169,2.1684,2.1704,2.1698,2.1706,2.1703,2.1722,2.1721,2.1786,2.1794,2.1731,2.1731,2.1732,0,2.1721,2.1732,2.1725,2.1729,2.1728,2.1734,2.1737,2.1723,2.1726,2.1724,2.1733,2.1738,2.1741,2.1753,2.1744,2.1748,2.1741,2.1764,2.1741,2.1745,2.1741,2.174,2.1741,2.1768,2.1769,2.1769,2.177,0,2.1772,2.1767,2.1771,2.1774,2.1778,2.178,2.178,2.1785,2.1769,2.1774,2.1781,2.1784,2.1789,2.1795,2.1797,2.1794,2.1779,2.1777,2.1782,2.1785,2.179,2.1787,2.1718,2.1775,2.1775,2.1774,2.1774,2.1774,2.1811,2.182,2.1818,2.1824,2.1823,2.1824,2.1831,2.1825,2.1831,2.1834,2.1825,2.1834,2.1832,2.1833,2.1832,2.1839,2.1829,2.1835,2.1837,2.1838,2.1841,2.1789,2.1839,2.1839,2.1839,2.1839,2.1839,0,2.1862,2.1859,2.1865,2.1866,2.1871,2.1858,2.1859,2.1864,2.1872,2.1871,2.1875,2.1883,2.1889,2.1882,2.1886,2.1893,2.1887,2.1895,2.1893,2.1893,2.185,2.1846,2.19,2.19,2.19,2.19,2.19,2.19,2.1888,2.1903,2.1897,2.1912,2.1909,2.1918,2.192,2.1921,2.192,2.193,2.1935,2.1931,2.1927,2.1932,2.1936,2.1934,2.1936,2.1947,2.1942,2.1902,2.1896,2.189,2.1886,2.1948,2.1948,2.1984,2.1985,2.1985]},{"header":{"parameterUnit":"m.s-1","parameterCategory":1,"la1":30.2991,"la2":30.254,"lo1":-89.0895,"lo2":-89.0444,"dy":0.0017,"dx":0.0017,"nx":28,"ny":28,"refTime":"2023-03-19T21:00:00:Z","depth":0,"parameterNumber":3,"parameterNumberName":"V-component_of_WINDS"},"data":[0,0,0,0,0,0,0,0,0,0,0,0,0,0,0,0,0,0,0,0,0,0,0,0,0,0,0,0,0,0,0,0,0,0,0,0,0,0,0,0,0,0,0,0,0,0,0,0,0,0,0,0,0,0,0,0,0,0,-6.6905,-6.6907,0,-6.7039,-6.7041,-6.7042,-6.6995,-6.6992,-6.6989,-6.6986,-6.7119,-6.7126,-6.7132,0,0,0,0,0,0,0,0,0,0,0,0,0,-6.6604,-6.6609,-6.6905,-6.6907,-6.6909,-6.7039,-6.7041,-6.7043,-6.6996,-6.6992,-6.6988,-6.6985,-6.7117,-6.7125,-6.7132,0,0,0,0,0,0,0,0,0,0,0,0,0,-6.6736,-6.6611,-6.6905,-6.6901,-6.6902,-6.7039,-6.7041,-6.7043,-6.6996,-6.6992,-6.6988,-6.6983,-6.7115,-6.7124,-6.7133,-6.7281,0,0,-6.7162,-6.7166,0,0,0,0,0,0,0,0,-6.6728,-6.6747,-6.69,-6.6901,-6.6903,-6.6996,-6.6983,-6.7123,-6.6998,-6.696,-6.6986,-6.6981,-6.7082,-6.7094,-6.7128,-6.7287,-6.7293,-6.7163,-6.7169,-6.7173,-6.7176,0,0,0,0,0,0,0,-6.6719,-6.6741,-6.6958,-6.6902,-6.6904,-6.6891,-6.6905,-6.701,-6.7044,-6.6963,-6.696,-6.6977,-6.7082,-6.7119,-6.7131,-6.7295,-6.7163,-6.7171,-6.7177,-6.7181,-6.758,-6.7585,0,0,0,0,0,0,-6.671,-6.6734,-6.6954,-6.6962,-6.6803,-6.69,-6.6915,-6.6971,-6.7043,-6.705,-6.6981,-6.6974,-6.7105,-6.712,-6.7136,-6.7313,-6.7173,-6.7182,-6.7187,-6.7576,-6.7582,-6.7587,0,0,0,0,0,0,-6.6704,-6.673,-6.6948,-6.6847,-6.6874,-6.691,-6.6972,-6.6976,-6.7013,-6.7056,-6.7062,-6.7013,-6.7103,-6.7122,-6.7245,-6.7317,-6.7186,-6.7195,-6.757,-6.7577,-6.7584,-6.7668,0,0,0,0,0,0,-6.6695,-6.6728,-6.6786,-6.6849,-6.688,-6.7058,-6.6977,-6.6981,-6.703,-6.7023,-6.7088,-6.7095,-6.7101,-6.7232,-6.7255,-6.7327,-6.7202,-6.7563,-6.7573,-6.7582,-6.7659,-6.7678,-6.7693,0,0,0,0,0,-6.6685,-6.6803,-6.6789,-6.6816,-6.6952,-6.7062,-6.7079,-6.7085,-6.7036,-6.7094,-6.7121,-6.7093,-6.7305,-6.7245,-6.727,-6.7347,-6.7559,-6.757,-6.7581,-6.7652,-6.7674,-6.7693,0,0,0,0,0,0,-6.6746,-6.6811,-6.6796,-6.6939,-6.6995,-6.7054,-6.7126,-6.7108,-6.7179,-6.7169,-6.7171,-6.7187,-6.7313,-6.7342,-6.7273,-6.7493,-6.7425,-6.7441,-6.7469,-6.7491,-6.7508,-6.7497,-6.721,0,0,0,0,0,-6.6776,-6.6861,-6.6913,-6.7034,-6.7063,-6.709,-6.7138,-6.7137,-6.7195,-6.7218,-6.7255,-6.7311,-6.739,-6.7442,-6.7518,-6.7663,-6.7676,-6.7729,-6.7746,-6.7759,-6.7773,-6.7852,-6.7875,-6.7623,-6.7623,-6.7623,0,0,-6.6839,-6.6885,-6.6938,-6.7047,-6.7091,-6.7177,-6.711,-6.7204,-6.7268,-6.7232,-6.7351,-6.738,-6.7442,-6.7577,-6.7638,-6.7605,-6.7846,-6.7774,-6.7784,-6.7791,-6.7866,-6.789,-6.7911,-6.7631,-6.763,-6.7628,0,0,-6.6998,-6.7042,-6.7147,-6.7193,-6.726,-6.7278,-6.7303,-6.7364,-6.7382,-6.7502,-6.7477,-6.7552,-6.7689,-6.7734,-6.7775,-6.7952,-6.7927,-6.7976,-6.8064,-6.8141,-6.8161,-6.8178,-6.824,-6.8262,-6.799,-6.799,-6.799,0,-6.7067,-6.7198,-6.7203,-6.73,-6.7348,-6.7321,-6.7427,-6.747,-6.7558,-6.7592,-6.7554,-6.7725,-6.7765,-6.791,-6.7953,-6.7988,-6.8015,-6.7968,-6.8158,-6.8175,-6.8192,-6.8251,-6.8274,-6.7996,-6.7995,-6.7994,-6.7994,0,-6.7279,-6.737,-6.7447,-6.7534,-6.7591,-6.7691,-6.7711,-6.7767,-6.7762,-6.7783,-6.7904,-6.7952,-6.8036,-6.8071,-6.8066,-6.8215,-6.8192,-6.8156,-6.8087,-6.8221,-6.8277,-6.8299,-6.8003,-6.8001,-6.8,-6.7998,0,0,-6.748,-6.7569,-6.7597,-6.7636,-6.7709,-6.7778,-6.7877,-6.7961,-6.8009,-6.8071,-6.8153,-6.827,-6.8237,-6.8284,-6.8284,-6.8351,-6.8487,-6.8307,-6.8308,-6.8338,-6.8652,-6.8678,-6.8705,-6.8472,-6.8476,-6.8479,-6.8647,0,-6.7644,-6.7819,-6.7827,-6.7986,-6.8069,-6.8045,-6.8131,-6.8184,-6.8206,-6.8279,-6.8302,-6.8385,-6.8336,-6.8364,-6.8429,-6.8456,-6.855,-6.8444,-6.8546,-6.855,-6.8531,-6.8734,-6.8762,-6.8917,-6.8669,-6.8672,-6.8675,0,-6.7858,-6.7928,-6.8096,-6.8156,-6.8192,-6.8269,-6.8346,-6.8417,-6.8476,-6.8487,-6.854,-6.853,-6.863,-6.8559,-6.8695,-6.8624,-6.8666,-6.8685,-6.8691,-6.87,-6.862,-6.8747,-6.8967,-6.899,-6.8709,-6.8707,-6.8704,0,-6.7986,-6.8122,-6.824,-6.8274,-6.8348,-6.8403,-6.8436,-6.8491,-6.8541,-6.8608,-6.864,-6.8718,-6.876,-6.8819,-6.883,-6.8778,-6.8967,-6.8897,-6.8978,-6.8978,-6.9018,-6.9015,-6.9247,-6.9047,-6.9047,-6.9046,-6.9046,0,-6.8168,-6.8271,-6.8299,-6.8371,-6.8486,-6.8493,-6.8606,-6.8635,-6.8684,-6.876,-6.8744,-6.8816,-6.8827,-6.8901,-6.891,-6.9021,-6.904,-6.9051,-6.9052,-6.9052,-6.9051,-6.9079,-6.9068,-6.9052,-6.9051,-6.905,-6.9049,0,-6.833,-6.8353,-6.848,-6.854,-6.8557,-6.8639,-6.8689,-6.8758,-6.8778,-6.8875,-6.8898,-6.893,-6.9016,-6.9034,-6.9135,-6.9141,-6.9273,-6.9264,-6.9254,-6.9252,-6.9332,-6.9324,-6.9589,-6.9624,-6.9402,-6.9404,-6.9406,0,-6.8444,-6.8523,-6.8592,-6.8643,-6.8679,-6.8761,-6.8812,-6.8822,-6.8876,-6.895,-6.9009,-6.9094,-6.9162,-6.9301,-6.9332,-6.9409,-6.9401,-6.9489,-6.9412,-6.941,-6.9401,-6.9396,-6.9403,-6.9503,-6.9505,-6.9507,-6.9509,0,-6.8644,-6.8651,-6.8726,-6.8806,-6.8868,-6.893,-6.899,-6.9032,-6.905,-6.9111,-6.92,-6.9253,-6.9357,-6.9441,-6.9519,-6.9551,-6.9533,-6.9533,-6.9555,-6.9556,-6.9546,-6.9551,-6.9292,-6.9526,-6.9525,-6.9523,-6.9522,-6.9522,-6.8785,-6.8854,-6.8913,-6.8997,-6.9043,-6.9099,-6.9167,-6.9196,-6.9271,-6.9358,-6.9359,-6.9456,-6.9512,-6.9615,-6.9652,-6.9726,-6.9698,-6.9731,-6.974,-6.9747,-6.9754,-6.9535,-6.9741,-6.974,-6.974,-6.9739,-6.9739,0,-6.8982,-6.902,-6.9097,-6.9182,-6.9248,-6.9227,-6.9291,-6.9347,-6.9433,-6.9488,-6.9556,-6.9658,-6.9739,-6.9777,-6.9857,-6.9909,-6.9903,-6.993,-6.9925,-6.9933,-6.9775,-6.9747,-6.9934,-6.9934,-6.9934,-6.9934,-6.9934,-6.9933,-6.9093,-6.9209,-6.9223,-6.9361,-6.9397,-6.9493,-6.9531,-6.9582,-6.9626,-6.9741,-6.9809,-6.9834,-6.9882,-6.9965,-7.0038,-7.0047,-7.0077,-7.0107,-7.0112,-6.9964,-6.9944,-6.9925,-6.9899,-7.0114,-7.0114,-7.0264,-7.0265,-7.0266]}]]